Tracking 31027 objects as of 19-Jul-2025
HD Live streaming from Space Station
objects crossing your sky now

WESTFORD NEEDLES

Track WESTFORD NEEDLES now!
10-day predictions
WESTFORD NEEDLES is classified as:


NORAD ID: 19051
Int'l Code: 1963-014EA
Perigee: 3,401.2 km
Apogee: 3,877.7 km
Inclination: 87.4 °
Period: 166.1 minutes
Semi major axis: 10010 km
RCS: 0.357 m2 (medium)
Launch date: May 9, 1963
Source: United States (US)
Launch site: AIR FORCE WESTERN TEST RANGE (AFWTR)
Your satellite tracking list
IRIDIUM 134
Track 1 satellite(s)




NASA's NSSDC Master Catalog

Two Line Element Set (TLE):
1 19051U 63014EA  25192.38901449 -.00000041  00000-0 -19224-1 0  9993
2 19051  87.3765 184.4212 0237990 296.3833  61.2772  8.66806594413814
Source of the keplerian elements: AFSPC